Location: Unspecified
(35.7250°N, 0.0000°E)
Time: 21:16:44
(UTC+00:00)

Vanguard 2 Rocket - All Passes

Search period start: 20 June 2019 00:00
Search period end: 30 June 2019 00:00
Orbit: 554 x 3326 km, 32.9° (Epoch: 20 June)

Date Brightness Start Highest point End Pass type
(mag) Time Alt. Az. Time Alt. Az. Time Alt. Az.
20 Jun - 01:39:34 10° W 01:54:07 75° SSW 02:14:31 10° ESE visible
20 Jun - 03:55:07 10° W 04:11:56 49° SSW 04:30:28 10° SE visible
20 Jun - 06:15:36 10° W 06:28:09 21° SW 06:40:05 10° S daylight
20 Jun - 20:15:50 10° SSW 20:22:11 33° SE 20:32:24 10° E visible
20 Jun - 22:26:39 10° WSW 22:35:52 72° SSE 22:52:17 10° E visible
21 Jun - 00:39:41 10° W 00:52:21 79° S 01:12:10 10° ESE visible
21 Jun - 02:54:15 10° W 03:10:05 58° SSW 03:29:45 10° SE visible
21 Jun - 05:12:00 10° W 05:27:01 29° SW 05:42:12 10° S daylight
21 Jun - 19:18:31 10° S 19:23:06 20° SE 19:29:27 10° E daylight
21 Jun - 21:27:50 10° SW 21:35:35 60° SSE 21:49:31 10° E visible
21 Jun - 23:40:09 10° W 23:50:59 80° S 00:09:26 10° E visible
22 Jun - 01:53:56 10° W 02:08:14 66° SSW 02:28:17 10° ESE visible
22 Jun - 04:09:56 10° W 04:25:35 38° SW 04:42:56 10° SSE visible
22 Jun - 06:35:23 10° WSW 06:41:31 12° SW 06:47:33 10° SSW daylight
22 Jun - 20:29:21 10° SW 20:35:49 45° SSE 20:46:58 10° E visible
22 Jun - 22:40:54 10° WSW 22:50:05 78° S 23:06:34 10° E visible
23 Jun - 00:54:02 10° W 01:06:35 73° SSW 01:26:10 10° ESE visible
23 Jun - 03:08:49 10° W 03:23:56 47° SSW 03:42:42 10° SE visible
23 Jun - 05:28:33 10° W 05:40:29 20° SW 05:52:41 10° S daylight
23 Jun - 19:31:22 10° SSW 19:36:33 30° SE 19:44:38 10° E daylight
23 Jun - 21:41:57 10° WSW 21:49:40 70° SSE 22:03:49 10° E visible
23 Jun - 23:54:30 10° W 00:05:17 77° S 00:23:36 10° ESE visible
24 Jun - 02:08:22 10° W 02:22:16 56° SSW 02:41:37 10° SE visible
24 Jun - 04:25:23 10° W 04:39:12 28° SW 04:54:32 10° S daylight
24 Jun - 18:34:14 10° S 18:37:39 16° SE 18:42:02 10° E daylight
24 Jun - 20:43:16 10° SW 20:49:44 58° SSE 21:01:21 10° E visible
24 Jun - 22:55:14 10° W 23:04:23 79° S 23:20:49 10° E visible
25 Jun - 01:08:26 10° W 01:20:46 63° SSW 01:39:52 10° SE visible
25 Jun - 03:23:44 10° W 03:37:45 36° SSW 03:54:58 10° SSE visible
25 Jun - 05:49:02 10° WSW 05:54:06 11° SW 05:59:14 10° SSW daylight
25 Jun - 19:44:53 10° SW 19:50:17 42° SSE 19:59:15 10° E visible
25 Jun - 21:56:13 10° WSW 22:03:55 76° S 22:18:06 10° E visible
26 Jun - 00:08:52 10° W 00:19:32 70° SSW 00:37:34 10° ESE visible
26 Jun - 02:23:01 10° W 02:36:15 44° SSW 02:54:25 10° SE visible
26 Jun - 04:42:11 10° WSW 04:52:54 19° SW 05:04:36 10° S daylight
26 Jun - 18:46:57 10° SSW 18:51:13 26° SE 18:57:23 10° E daylight
26 Jun - 20:57:24 10° WSW 21:03:52 69° SSE 21:15:40 10° E visible
26 Jun - 23:09:36 10° W 23:18:41 75° S 23:34:58 10° ESE visible
27 Jun - 01:22:55 10° W 01:34:53 52° SSW 01:53:06 10° SE visible
27 Jun - 03:39:21 10° W 03:51:35 26° SW 04:06:16 10° S visible
27 Jun - 17:50:01 10° SSE 17:52:22 13° SE 17:55:08 10° ESE daylight
27 Jun - 19:58:49 10° WSW 20:04:16 55° SSE 20:13:40 10° E visible
27 Jun - 22:10:34 10° W 22:18:14 77° S 22:32:21 10° E visible
28 Jun - 00:23:17 10° W 00:33:45 60° SSW 00:51:11 10° SE visible
28 Jun - 02:38:03 10° W 02:50:14 33° SSW 03:06:29 10° SSE visible
28 Jun - 05:05:28 10° SW 05:06:47 10° SW 05:08:07 10° SW daylight
28 Jun - 19:00:29 10° SW 19:05:01 38° SSE 19:12:05 10° E daylight
28 Jun - 21:11:42 10° W 21:18:10 74° S 21:29:58 10° E visible
28 Jun - 23:23:59 10° W 23:32:58 66° SSW 23:48:54 10° ESE visible
29 Jun - 01:37:39 10° W 01:48:59 40° SSW 02:05:45 10° SSE visible
29 Jun - 03:56:34 10° WSW 04:05:32 17° SW 04:15:46 10° S visible
29 Jun - 18:02:32 10° SSW 18:06:04 23° SE 18:10:44 10° E daylight
29 Jun - 20:12:59 10° WSW 20:18:27 66° SSE 20:28:00 10° E visible
29 Jun - 22:24:56 10° W 22:32:33 71° S 22:46:30 10° ESE visible
